owner,sensor,date,latitude,longitude,air_temperature,qcFlag 
COMPS,ioos:station:USF.COMPS:SHP:1,2014-06-01T00:00:00Z,30.0600,-84.2910,27.71,1111122 
COMPS,ioos:station:USF.COMPS:SHP:1,2014-06-01T00:06:00Z,30.0600,-84.2910,27.74,1111122 
COMPS,ioos:station:USF.COMPS:SHP:1,2014-06-01T00:12:00Z,30.0600,-84.2910,27.55,1111122 
COMPS,ioos:station:USF.COMPS:SHP:1,2014-06-01T00:18:00Z,30.0600,-84.2910,27.53,1111122 
COMPS,ioos:station:USF.COMPS:SHP:1,2014-06-01T00:24:00Z,30.0600,-84.2910,27.46,1111122 
COMPS,ioos:station:USF.COMPS:SHP:1,2014-06-01T00:30:00Z,30.0600,-84.2910,27.59,1111122 
COMPS,ioos:station:USF.COMPS:SHP:1,2014-06-01T00:36:00Z,30.0600,-84.2910,27.55,1111122 
COMPS,ioos:station:USF.COMPS:SHP:1,2014-06-01T00:42:00Z,30.0600,-84.2910,27.5,1111122 
COMPS,ioos:station:USF.COMPS:SHP:1,2014-06-01T00:48:00Z,30.0600,-84.2910,26.91,1111122 
COMPS,ioos:station:USF.COMPS:SHP:1,2014-06-01T00:54:00Z,30.0600,-84.2910,25.82,1111122 
COMPS,ioos:station:USF.COMPS:SHP:1,2014-06-01T01:00:00Z,30.0600,-84.2910,24.53,1111122 
COMPS,ioos:station:USF.COMPS:SHP:1,2014-06-01T01:06:00Z,30.0600,-84.2910,24.13,1111122 
COMPS,ioos:station:USF.COMPS:SHP:1,2014-06-01T01:12:00Z,30.0600,-84.2910,23.89,1111122 
COMPS,ioos:station:USF.COMPS:SHP:1,2014-06-01T01:18:00Z,30.0600,-84.2910,23.4,1111122 
COMPS,ioos:station:USF.COMPS:SHP:1,2014-06-01T01:24:00Z,30.0600,-84.2910,22.99,1111122 
COMPS,ioos:station:USF.COMPS:SHP:1,2014-06-01T01:30:00Z,30.0600,-84.2910,22.8,1111122 
COMPS,ioos:station:USF.COMPS:SHP:1,2014-06-01T01:36:00Z,30.0600,-84.2910,22.96,1111122 
COMPS,ioos:station:USF.COMPS:SHP:1,2014-06-01T01:42:00Z,30.0600,-84.2910,23.1,1111122 
COMPS,ioos:station:USF.COMPS:SHP:1,2014-06-01T01:48:00Z,30.0600,-84.2910,23.27,1111122 
COMPS,ioos:station:USF.COMPS:SHP:1,2014-06-01T01:54:00Z,30.0600,-84.2910,23.2,1111122 
COMPS,ioos:station:USF.COMPS:SHP:1,2014-06-01T02:00:00Z,30.0600,-84.2910,22.92,1111122 
COMPS,ioos:station:USF.COMPS:SHP:1,2014-06-01T02:06:00Z,30.0600,-84.2910,22.64,1111122 
COMPS,ioos:station:USF.COMPS:SHP:1,2014-06-01T02:12:00Z,30.0600,-84.2910,22.52,1111122 
COMPS,ioos:station:USF.COMPS:SHP:1,2014-06-01T02:18:00Z,30.0600,-84.2910,22.44,1111122 
COMPS,ioos:station:USF.COMPS:SHP:1,2014-06-01T02:24:00Z,30.0600,-84.2910,22.43,1111122 
COMPS,ioos:station:USF.COMPS:SHP:1,2014-06-01T02:30:00Z,30.0600,-84.2910,22.56,1111122 
COMPS,ioos:station:USF.COMPS:SHP:1,2014-06-01T02:36:00Z,30.0600,-84.2910,22.75,1111122 
COMPS,ioos:station:USF.COMPS:SHP:1,2014-06-01T02:42:00Z,30.0600,-84.2910,22.55,1111122 
COMPS,ioos:station:USF.COMPS:SHP:1,2014-06-01T02:48:00Z,30.0600,-84.2910,22.41,1111122 
COMPS,ioos:station:USF.COMPS:SHP:1,2014-06-01T02:54:00Z,30.0600,-84.2910,22.32,1111122 
COMPS,ioos:station:USF.COMPS:SHP:1,2014-06-01T03:00:00Z,30.0600,-84.2910,22.43,1111122 
COMPS,ioos:station:USF.COMPS:SHP:1,2014-06-01T03:06:00Z,30.0600,-84.2910,22.22,1111122 
COMPS,ioos:station:USF.COMPS:SHP:1,2014-06-01T03:12:00Z,30.0600,-84.2910,22.11,1111122 
COMPS,ioos:station:USF.COMPS:SHP:1,2014-06-01T03:18:00Z,30.0600,-84.2910,21.72,1111122 
COMPS,ioos:station:USF.COMPS:SHP:1,2014-06-01T03:24:00Z,30.0600,-84.2910,21.63,1111122 
COMPS,ioos:station:USF.COMPS:SHP:1,2014-06-01T03:30:00Z,30.0600,-84.2910,21.53,1111122 
COMPS,ioos:station:USF.COMPS:SHP:1,2014-06-01T03:36:00Z,30.0600,-84.2910,21.32,1111122 
COMPS,ioos:station:USF.COMPS:SHP:1,2014-06-01T03:42:00Z,30.0600,-84.2910,21.29,1111122 
COMPS,ioos:station:USF.COMPS:SHP:1,2014-06-01T03:48:00Z,30.0600,-84.2910,21.33,1111122 
COMPS,ioos:station:USF.COMPS:SHP:1,2014-06-01T03:54:00Z,30.0600,-84.2910,21.35,1111122 
COMPS,ioos:station:USF.COMPS:SHP:1,2014-06-01T04:00:00Z,30.0600,-84.2910,21.18,1111122 
COMPS,ioos:station:USF.COMPS:SHP:1,2014-06-01T04:06:00Z,30.0600,-84.2910,21.17,1111122 
COMPS,ioos:station:USF.COMPS:SHP:1,2014-06-01T04:12:00Z,30.0600,-84.2910,21.26,1111122 
COMPS,ioos:station:USF.COMPS:SHP:1,2014-06-01T04:18:00Z,30.0600,-84.2910,21.51,1111122 
COMPS,ioos:station:USF.COMPS:SHP:1,2014-06-01T04:24:00Z,30.0600,-84.2910,21.71,1111122 
COMPS,ioos:station:USF.COMPS:SHP:1,2014-06-01T04:30:00Z,30.0600,-84.2910,21.82,1111122 
COMPS,ioos:station:USF.COMPS:SHP:1,2014-06-01T04:36:00Z,30.0600,-84.2910,22.03,1111122 
COMPS,ioos:station:USF.COMPS:SHP:1,2014-06-01T04:42:00Z,30.0600,-84.2910,22.16,1111122 
COMPS,ioos:station:USF.COMPS:SHP:1,2014-06-01T04:48:00Z,30.0600,-84.2910,22.05,1111122 
COMPS,ioos:station:USF.COMPS:SHP:1,2014-06-01T04:54:00Z,30.0600,-84.2910,22.0,1111122 
COMPS,ioos:station:USF.COMPS:SHP:1,2014-06-01T05:00:00Z,30.0600,-84.2910,22.16,1111122 
COMPS,ioos:station:USF.COMPS:SHP:1,2014-06-01T05:06:00Z,30.0600,-84.2910,22.39,1111122 
COMPS,ioos:station:USF.COMPS:SHP:1,2014-06-01T05:12:00Z,30.0600,-84.2910,22.33,1111122 
COMPS,ioos:station:USF.COMPS:SHP:1,2014-06-01T05:18:00Z,30.0600,-84.2910,22.26,1111122 
COMPS,ioos:station:USF.COMPS:SHP:1,2014-06-01T05:24:00Z,30.0600,-84.2910,22.33,1111122 
COMPS,ioos:station:USF.COMPS:SHP:1,2014-06-01T05:30:00Z,30.0600,-84.2910,22.46,1111122 
COMPS,ioos:station:USF.COMPS:SHP:1,2014-06-01T05:36:00Z,30.0600,-84.2910,22.34,1111122 
COMPS,ioos:station:USF.COMPS:SHP:1,2014-06-01T05:42:00Z,30.0600,-84.2910,22.75,1111122 
COMPS,ioos:station:USF.COMPS:SHP:1,2014-06-01T05:48:00Z,30.0600,-84.2910,23.69,1111122 
COMPS,ioos:station:USF.COMPS:SHP:1,2014-06-01T05:54:00Z,30.0600,-84.2910,24.55,1111122 
COMPS,ioos:station:USF.COMPS:SHP:1,2014-06-01T06:00:00Z,30.0600,-84.2910,25.04,1111122 
COMPS,ioos:station:USF.COMPS:SHP:1,2014-06-01T06:06:00Z,30.0600,-84.2910,25.26,1111122 
COMPS,ioos:station:USF.COMPS:SHP:1,2014-06-01T06:12:00Z,30.0600,-84.2910,23.84,1111122 
COMPS,ioos:station:USF.COMPS:SHP:1,2014-06-01T06:18:00Z,30.0600,-84.2910,23.35,1111122 
COMPS,ioos:station:USF.COMPS:SHP:1,2014-06-01T06:24:00Z,30.0600,-84.2910,22.92,1111122 
COMPS,ioos:station:USF.COMPS:SHP:1,2014-06-01T06:30:00Z,30.0600,-84.2910,22.96,1111122 
COMPS,ioos:station:USF.COMPS:SHP:1,2014-06-01T06:36:00Z,30.0600,-84.2910,23.24,1111122 
COMPS,ioos:station:USF.COMPS:SHP:1,2014-06-01T06:42:00Z,30.0600,-84.2910,23.29,1111122 
COMPS,ioos:station:USF.COMPS:SHP:1,2014-06-01T06:48:00Z,30.0600,-84.2910,23.1,1111122 
COMPS,ioos:station:USF.COMPS:SHP:1,2014-06-01T06:54:00Z,30.0600,-84.2910,23.01,1111122 
COMPS,ioos:station:USF.COMPS:SHP:1,2014-06-01T07:00:00Z,30.0600,-84.2910,22.99,1111122 
COMPS,ioos:station:USF.COMPS:SHP:1,2014-06-01T07:06:00Z,30.0600,-84.2910,22.69,1111122 
COMPS,ioos:station:USF.COMPS:SHP:1,2014-06-01T07:12:00Z,30.0600,-84.2910,22.55,1111122 
COMPS,ioos:station:USF.COMPS:SHP:1,2014-06-01T07:18:00Z,30.0600,-84.2910,22.43,1111122 
COMPS,ioos:station:USF.COMPS:SHP:1,2014-06-01T07:24:00Z,30.0600,-84.2910,22.56,1111122 
COMPS,ioos:station:USF.COMPS:SHP:1,2014-06-01T07:30:00Z,30.0600,-84.2910,22.51,1111122 
COMPS,ioos:station:USF.COMPS:SHP:1,2014-06-01T07:36:00Z,30.0600,-84.2910,22.58,1111122 
COMPS,ioos:station:USF.COMPS:SHP:1,2014-06-01T07:42:00Z,30.0600,-84.2910,22.48,1111122 
COMPS,ioos:station:USF.COMPS:SHP:1,2014-06-01T07:48:00Z,30.0600,-84.2910,22.49,1111122 
COMPS,ioos:station:USF.COMPS:SHP:1,2014-06-01T07:54:00Z,30.0600,-84.2910,22.51,1111122 
COMPS,ioos:station:USF.COMPS:SHP:1,2014-06-01T08:00:00Z,30.0600,-84.2910,22.67,1111122 
COMPS,ioos:station:USF.COMPS:SHP:1,2014-06-01T08:06:00Z,30.0600,-84.2910,22.46,1111122 
COMPS,ioos:station:USF.COMPS:SHP:1,2014-06-01T08:12:00Z,30.0600,-84.2910,22.46,1111122 
COMPS,ioos:station:USF.COMPS:SHP:1,2014-06-01T08:18:00Z,30.0600,-84.2910,22.54,1111122 
COMPS,ioos:station:USF.COMPS:SHP:1,2014-06-01T08:24:00Z,30.0600,-84.2910,22.72,1111122 
COMPS,ioos:station:USF.COMPS:SHP:1,2014-06-01T08:30:00Z,30.0600,-84.2910,22.66,1111122 
COMPS,ioos:station:USF.COMPS:SHP:1,2014-06-01T08:36:00Z,30.0600,-84.2910,22.6,1111122 
COMPS,ioos:station:USF.COMPS:SHP:1,2014-06-01T08:42:00Z,30.0600,-84.2910,22.51,1111122 
COMPS,ioos:station:USF.COMPS:SHP:1,2014-06-01T08:48:00Z,30.0600,-84.2910,22.53,1111122 
COMPS,ioos:station:USF.COMPS:SHP:1,2014-06-01T08:54:00Z,30.0600,-84.2910,22.38,1111122 
COMPS,ioos:station:USF.COMPS:SHP:1,2014-06-01T09:00:00Z,30.0600,-84.2910,22.31,1111122 
COMPS,ioos:station:USF.COMPS:SHP:1,2014-06-01T09:06:00Z,30.0600,-84.2910,22.31,1111122 
COMPS,ioos:station:USF.COMPS:SHP:1,2014-06-01T09:12:00Z,30.0600,-84.2910,22.4,1111122 
COMPS,ioos:station:USF.COMPS:SHP:1,2014-06-01T09:18:00Z,30.0600,-84.2910,22.45,1111122 
COMPS,ioos:station:USF.COMPS:SHP:1,2014-06-01T09:24:00Z,30.0600,-84.2910,22.52,1111122 
COMPS,ioos:station:USF.COMPS:SHP:1,2014-06-01T09:30:00Z,30.0600,-84.2910,22.69,1111122 
COMPS,ioos:station:USF.COMPS:SHP:1,2014-06-01T09:36:00Z,30.0600,-84.2910,22.67,1111122 
COMPS,ioos:station:USF.COMPS:SHP:1,2014-06-01T09:42:00Z,30.0600,-84.2910,22.68,1111122 
COMPS,ioos:station:USF.COMPS:SHP:1,2014-06-01T09:48:00Z,30.0600,-84.2910,22.6,1111122 
COMPS,ioos:station:USF.COMPS:SHP:1,2014-06-01T09:54:00Z,30.0600,-84.2910,22.6,1111122 
COMPS,ioos:station:USF.COMPS:SHP:1,2014-06-01T10:00:00Z,30.0600,-84.2910,22.62,1111122 
COMPS,ioos:station:USF.COMPS:SHP:1,2014-06-01T10:06:00Z,30.0600,-84.2910,22.68,1111122 
COMPS,ioos:station:USF.COMPS:SHP:1,2014-06-01T10:12:00Z,30.0600,-84.2910,22.63,1111122 
COMPS,ioos:station:USF.COMPS:SHP:1,2014-06-01T10:18:00Z,30.0600,-84.2910,22.73,1111122 
COMPS,ioos:station:USF.COMPS:SHP:1,2014-06-01T10:24:00Z,30.0600,-84.2910,22.74,1111122 
COMPS,ioos:station:USF.COMPS:SHP:1,2014-06-01T10:30:00Z,30.0600,-84.2910,22.86,1111122 
COMPS,ioos:station:USF.COMPS:SHP:1,2014-06-01T10:36:00Z,30.0600,-84.2910,22.73,1111122 
COMPS,ioos:station:USF.COMPS:SHP:1,2014-06-01T10:42:00Z,30.0600,-84.2910,22.73,1111122 
COMPS,ioos:station:USF.COMPS:SHP:1,2014-06-01T10:48:00Z,30.0600,-84.2910,22.74,1111122 
COMPS,ioos:station:USF.COMPS:SHP:1,2014-06-01T10:54:00Z,30.0600,-84.2910,22.99,1111122 
COMPS,ioos:station:USF.COMPS:SHP:1,2014-06-01T11:00:00Z,30.0600,-84.2910,23.0,1111122 
COMPS,ioos:station:USF.COMPS:SHP:1,2014-06-01T11:06:00Z,30.0600,-84.2910,22.9,1111122 
COMPS,ioos:station:USF.COMPS:SHP:1,2014-06-01T11:12:00Z,30.0600,-84.2910,22.87,1111122 
COMPS,ioos:station:USF.COMPS:SHP:1,2014-06-01T11:18:00Z,30.0600,-84.2910,22.96,1111122 
COMPS,ioos:station:USF.COMPS:SHP:1,2014-06-01T11:24:00Z,30.0600,-84.2910,22.91,1111122 
COMPS,ioos:station:USF.COMPS:SHP:1,2014-06-01T11:30:00Z,30.0600,-84.2910,22.93,1111122 
COMPS,ioos:station:USF.COMPS:SHP:1,2014-06-01T11:36:00Z,30.0600,-84.2910,23.0,1111122 
COMPS,ioos:station:USF.COMPS:SHP:1,2014-06-01T11:42:00Z,30.0600,-84.2910,23.2,1111122 
COMPS,ioos:station:USF.COMPS:SHP:1,2014-06-01T11:48:00Z,30.0600,-84.2910,23.41,1111122 
COMPS,ioos:station:USF.COMPS:SHP:1,2014-06-01T11:54:00Z,30.0600,-84.2910,23.61,1111122 
COMPS,ioos:station:USF.COMPS:SHP:1,2014-06-01T12:00:00Z,30.0600,-84.2910,23.83,1111122 
COMPS,ioos:station:USF.COMPS:SHP:1,2014-06-01T12:06:00Z,30.0600,-84.2910,24.02,1111122 
COMPS,ioos:station:USF.COMPS:SHP:1,2014-06-01T12:12:00Z,30.0600,-84.2910,24.16,1111122 
COMPS,ioos:station:USF.COMPS:SHP:1,2014-06-01T12:18:00Z,30.0600,-84.2910,24.19,1111122 
COMPS,ioos:station:USF.COMPS:SHP:1,2014-06-01T12:24:00Z,30.0600,-84.2910,24.35,1111122 
COMPS,ioos:station:USF.COMPS:SHP:1,2014-06-01T12:30:00Z,30.0600,-84.2910,24.5,1111122 
COMPS,ioos:station:USF.COMPS:SHP:1,2014-06-01T12:36:00Z,30.0600,-84.2910,24.72,1111122 
COMPS,ioos:station:USF.COMPS:SHP:1,2014-06-01T12:42:00Z,30.0600,-84.2910,24.73,1111122 
COMPS,ioos:station:USF.COMPS:SHP:1,2014-06-01T12:48:00Z,30.0600,-84.2910,24.91,1111122 
COMPS,ioos:station:USF.COMPS:SHP:1,2014-06-01T12:54:00Z,30.0600,-84.2910,24.93,1111122 
COMPS,ioos:station:USF.COMPS:SHP:1,2014-06-01T13:00:00Z,30.0600,-84.2910,25.15,1111122 
COMPS,ioos:station:USF.COMPS:SHP:1,2014-06-01T13:06:00Z,30.0600,-84.2910,25.06,1111122 
COMPS,ioos:station:USF.COMPS:SHP:1,2014-06-01T13:12:00Z,30.0600,-84.2910,25.19,1111122 
COMPS,ioos:station:USF.COMPS:SHP:1,2014-06-01T13:18:00Z,30.0600,-84.2910,25.39,1111122 
COMPS,ioos:station:USF.COMPS:SHP:1,2014-06-01T13:24:00Z,30.0600,-84.2910,25.5,1111122 
COMPS,ioos:station:USF.COMPS:SHP:1,2014-06-01T13:30:00Z,30.0600,-84.2910,25.46,1111122 
COMPS,ioos:station:USF.COMPS:SHP:1,2014-06-01T13:36:00Z,30.0600,-84.2910,25.45,1111122 
COMPS,ioos:station:USF.COMPS:SHP:1,2014-06-01T13:42:00Z,30.0600,-84.2910,25.32,1111122 
COMPS,ioos:station:USF.COMPS:SHP:1,2014-06-01T13:48:00Z,30.0600,-84.2910,25.46,1111122 
COMPS,ioos:station:USF.COMPS:SHP:1,2014-06-01T13:54:00Z,30.0600,-84.2910,25.42,1111122 
COMPS,ioos:station:USF.COMPS:SHP:1,2014-06-01T14:00:00Z,30.0600,-84.2910,25.43,1111122 
COMPS,ioos:station:USF.COMPS:SHP:1,2014-06-01T14:06:00Z,30.0600,-84.2910,25.4,1111122 
COMPS,ioos:station:USF.COMPS:SHP:1,2014-06-01T14:12:00Z,30.0600,-84.2910,25.47,1111122 
COMPS,ioos:station:USF.COMPS:SHP:1,2014-06-01T14:18:00Z,30.0600,-84.2910,25.38,1111122 
COMPS,ioos:station:USF.COMPS:SHP:1,2014-06-01T14:24:00Z,30.0600,-84.2910,25.56,1111122 
COMPS,ioos:station:USF.COMPS:SHP:1,2014-06-01T14:30:00Z,30.0600,-84.2910,25.67,1111122 
COMPS,ioos:station:USF.COMPS:SHP:1,2014-06-01T14:36:00Z,30.0600,-84.2910,25.85,1111122 
COMPS,ioos:station:USF.COMPS:SHP:1,2014-06-01T14:42:00Z,30.0600,-84.2910,25.96,1111122 
COMPS,ioos:station:USF.COMPS:SHP:1,2014-06-01T14:48:00Z,30.0600,-84.2910,26.09,1111122 
COMPS,ioos:station:USF.COMPS:SHP:1,2014-06-01T14:54:00Z,30.0600,-84.2910,26.28,1111122 
COMPS,ioos:station:USF.COMPS:SHP:1,2014-06-01T15:00:00Z,30.0600,-84.2910,26.21,1111122 
COMPS,ioos:station:USF.COMPS:SHP:1,2014-06-01T15:06:00Z,30.0600,-84.2910,26.49,1111122 
COMPS,ioos:station:USF.COMPS:SHP:1,2014-06-01T15:12:00Z,30.0600,-84.2910,26.26,1111122 
COMPS,ioos:station:USF.COMPS:SHP:1,2014-06-01T15:18:00Z,30.0600,-84.2910,26.25,1111122 
COMPS,ioos:station:USF.COMPS:SHP:1,2014-06-01T15:24:00Z,30.0600,-84.2910,26.41,1111122 
COMPS,ioos:station:USF.COMPS:SHP:1,2014-06-01T15:30:00Z,30.0600,-84.2910,26.32,1111122 
COMPS,ioos:station:USF.COMPS:SHP:1,2014-06-01T15:36:00Z,30.0600,-84.2910,26.24,1111122 
COMPS,ioos:station:USF.COMPS:SHP:1,2014-06-01T15:42:00Z,30.0600,-84.2910,26.36,1111122 
COMPS,ioos:station:USF.COMPS:SHP:1,2014-06-01T15:48:00Z,30.0600,-84.2910,26.56,1111122 
COMPS,ioos:station:USF.COMPS:SHP:1,2014-06-01T15:54:00Z,30.0600,-84.2910,26.92,1111122 
COMPS,ioos:station:USF.COMPS:SHP:1,2014-06-01T16:00:00Z,30.0600,-84.2910,26.96,1111122 
COMPS,ioos:station:USF.COMPS:SHP:1,2014-06-01T16:06:00Z,30.0600,-84.2910,26.87,1111122 
COMPS,ioos:station:USF.COMPS:SHP:1,2014-06-01T16:12:00Z,30.0600,-84.2910,27.01,1111122 
COMPS,ioos:station:USF.COMPS:SHP:1,2014-06-01T16:18:00Z,30.0600,-84.2910,27.24,1111122 
COMPS,ioos:station:USF.COMPS:SHP:1,2014-06-01T16:24:00Z,30.0600,-84.2910,27.24,1111122 
COMPS,ioos:station:USF.COMPS:SHP:1,2014-06-01T16:30:00Z,30.0600,-84.2910,27.53,1111122 
COMPS,ioos:station:USF.COMPS:SHP:1,2014-06-01T16:36:00Z,30.0600,-84.2910,27.43,1111122 
COMPS,ioos:station:USF.COMPS:SHP:1,2014-06-01T16:42:00Z,30.0600,-84.2910,27.39,1111122 
COMPS,ioos:station:USF.COMPS:SHP:1,2014-06-01T16:48:00Z,30.0600,-84.2910,27.33,1111122 
COMPS,ioos:station:USF.COMPS:SHP:1,2014-06-01T16:54:00Z,30.0600,-84.2910,27.34,1111122 
COMPS,ioos:station:USF.COMPS:SHP:1,2014-06-01T17:00:00Z,30.0600,-84.2910,27.76,1111122 
COMPS,ioos:station:USF.COMPS:SHP:1,2014-06-01T17:06:00Z,30.0600,-84.2910,28.1,1111122 
COMPS,ioos:station:USF.COMPS:SHP:1,2014-06-01T17:12:00Z,30.0600,-84.2910,28.35,1111122 
COMPS,ioos:station:USF.COMPS:SHP:1,2014-06-01T17:18:00Z,30.0600,-84.2910,28.62,1111122 
COMPS,ioos:station:USF.COMPS:SHP:1,2014-06-01T17:24:00Z,30.0600,-84.2910,28.76,1111122 
COMPS,ioos:station:USF.COMPS:SHP:1,2014-06-01T17:30:00Z,30.0600,-84.2910,28.61,1111122 
COMPS,ioos:station:USF.COMPS:SHP:1,2014-06-01T17:36:00Z,30.0600,-84.2910,28.78,1111122 
COMPS,ioos:station:USF.COMPS:SHP:1,2014-06-01T17:42:00Z,30.0600,-84.2910,28.6,1111122 
COMPS,ioos:station:USF.COMPS:SHP:1,2014-06-01T17:48:00Z,30.0600,-84.2910,28.73,1111122 
COMPS,ioos:station:USF.COMPS:SHP:1,2014-06-01T17:54:00Z,30.0600,-84.2910,29.27,1111122 
COMPS,ioos:station:USF.COMPS:SHP:1,2014-06-01T18:00:00Z,30.0600,-84.2910,29.43,1111122 
COMPS,ioos:station:USF.COMPS:SHP:1,2014-06-01T18:06:00Z,30.0600,-84.2910,29.36,1111122 
COMPS,ioos:station:USF.COMPS:SHP:1,2014-06-01T18:12:00Z,30.0600,-84.2910,29.51,1111122 
COMPS,ioos:station:USF.COMPS:SHP:1,2014-06-01T18:18:00Z,30.0600,-84.2910,29.18,1111122 
COMPS,ioos:station:USF.COMPS:SHP:1,2014-06-01T18:24:00Z,30.0600,-84.2910,29.49,1111122 
COMPS,ioos:station:USF.COMPS:SHP:1,2014-06-01T18:30:00Z,30.0600,-84.2910,29.68,1111122 
COMPS,ioos:station:USF.COMPS:SHP:1,2014-06-01T18:36:00Z,30.0600,-84.2910,29.08,1111122 
COMPS,ioos:station:USF.COMPS:SHP:1,2014-06-01T18:42:00Z,30.0600,-84.2910,29.23,1111122 
COMPS,ioos:station:USF.COMPS:SHP:1,2014-06-01T18:48:00Z,30.0600,-84.2910,29.37,1111122 
COMPS,ioos:station:USF.COMPS:SHP:1,2014-06-01T18:54:00Z,30.0600,-84.2910,29.31,1111122 
COMPS,ioos:station:USF.COMPS:SHP:1,2014-06-01T19:00:00Z,30.0600,-84.2910,29.35,1111122 
COMPS,ioos:station:USF.COMPS:SHP:1,2014-06-01T19:06:00Z,30.0600,-84.2910,29.07,1111122 
COMPS,ioos:station:USF.COMPS:SHP:1,2014-06-01T19:12:00Z,30.0600,-84.2910,29.26,1111122 
COMPS,ioos:station:USF.COMPS:SHP:1,2014-06-01T19:18:00Z,30.0600,-84.2910,29.25,1111122 
COMPS,ioos:station:USF.COMPS:SHP:1,2014-06-01T19:24:00Z,30.0600,-84.2910,29.28,1111122 
COMPS,ioos:station:USF.COMPS:SHP:1,2014-06-01T19:30:00Z,30.0600,-84.2910,29.11,1111122 
COMPS,ioos:station:USF.COMPS:SHP:1,2014-06-01T19:36:00Z,30.0600,-84.2910,29.28,1111122 
COMPS,ioos:station:USF.COMPS:SHP:1,2014-06-01T19:42:00Z,30.0600,-84.2910,29.6,1111122 
COMPS,ioos:station:USF.COMPS:SHP:1,2014-06-01T19:48:00Z,30.0600,-84.2910,29.32,1111122 
COMPS,ioos:station:USF.COMPS:SHP:1,2014-06-01T19:54:00Z,30.0600,-84.2910,28.66,1111122 
COMPS,ioos:station:USF.COMPS:SHP:1,2014-06-01T20:00:00Z,30.0600,-84.2910,27.63,1111122 
COMPS,ioos:station:USF.COMPS:SHP:1,2014-06-01T20:06:00Z,30.0600,-84.2910,27.92,1111122 
COMPS,ioos:station:USF.COMPS:SHP:1,2014-06-01T20:12:00Z,30.0600,-84.2910,28.14,1111122 
COMPS,ioos:station:USF.COMPS:SHP:1,2014-06-01T20:18:00Z,30.0600,-84.2910,28.56,1111122 
COMPS,ioos:station:USF.COMPS:SHP:1,2014-06-01T20:24:00Z,30.0600,-84.2910,28.65,1111122 
COMPS,ioos:station:USF.COMPS:SHP:1,2014-06-01T20:30:00Z,30.0600,-84.2910,28.7,1111122 
COMPS,ioos:station:USF.COMPS:SHP:1,2014-06-01T20:36:00Z,30.0600,-84.2910,28.48,1111122 
COMPS,ioos:station:USF.COMPS:SHP:1,2014-06-01T20:42:00Z,30.0600,-84.2910,27.42,1111122 
COMPS,ioos:station:USF.COMPS:SHP:1,2014-06-01T20:48:00Z,30.0600,-84.2910,26.9,1111122 
COMPS,ioos:station:USF.COMPS:SHP:1,2014-06-01T20:54:00Z,30.0600,-84.2910,25.61,1111122 
COMPS,ioos:station:USF.COMPS:SHP:1,2014-06-01T21:00:00Z,30.0600,-84.2910,24.04,1111122 
COMPS,ioos:station:USF.COMPS:SHP:1,2014-06-01T21:06:00Z,30.0600,-84.2910,24.05,1111122 
COMPS,ioos:station:USF.COMPS:SHP:1,2014-06-01T21:12:00Z,30.0600,-84.2910,24.45,1111122 
COMPS,ioos:station:USF.COMPS:SHP:1,2014-06-01T21:18:00Z,30.0600,-84.2910,24.73,1111122 
COMPS,ioos:station:USF.COMPS:SHP:1,2014-06-01T21:24:00Z,30.0600,-84.2910,25.06,1111122 
COMPS,ioos:station:USF.COMPS:SHP:1,2014-06-01T21:30:00Z,30.0600,-84.2910,25.71,1111122 
COMPS,ioos:station:USF.COMPS:SHP:1,2014-06-01T21:36:00Z,30.0600,-84.2910,25.39,1111122 
COMPS,ioos:station:USF.COMPS:SHP:1,2014-06-01T21:42:00Z,30.0600,-84.2910,25.07,1111122 
COMPS,ioos:station:USF.COMPS:SHP:1,2014-06-01T21:48:00Z,30.0600,-84.2910,24.71,1111122 
COMPS,ioos:station:USF.COMPS:SHP:1,2014-06-01T21:54:00Z,30.0600,-84.2910,23.85,1111122 
COMPS,ioos:station:USF.COMPS:SHP:1,2014-06-01T22:00:00Z,30.0600,-84.2910,23.48,1111122 
COMPS,ioos:station:USF.COMPS:SHP:1,2014-06-01T22:06:00Z,30.0600,-84.2910,22.95,1111122 
COMPS,ioos:station:USF.COMPS:SHP:1,2014-06-01T22:12:00Z,30.0600,-84.2910,22.97,1111122 
COMPS,ioos:station:USF.COMPS:SHP:1,2014-06-01T22:18:00Z,30.0600,-84.2910,23.07,1111122 
COMPS,ioos:station:USF.COMPS:SHP:1,2014-06-01T22:24:00Z,30.0600,-84.2910,23.28,1111122 
COMPS,ioos:station:USF.COMPS:SHP:1,2014-06-01T22:30:00Z,30.0600,-84.2910,23.5,1111122 
COMPS,ioos:station:USF.COMPS:SHP:1,2014-06-01T22:36:00Z,30.0600,-84.2910,23.66,1111122 
COMPS,ioos:station:USF.COMPS:SHP:1,2014-06-01T22:42:00Z,30.0600,-84.2910,23.68,1111122 
COMPS,ioos:station:USF.COMPS:SHP:1,2014-06-01T22:48:00Z,30.0600,-84.2910,23.74,1111122 
COMPS,ioos:station:USF.COMPS:SHP:1,2014-06-01T22:54:00Z,30.0600,-84.2910,23.8,1111122 
COMPS,ioos:station:USF.COMPS:SHP:1,2014-06-01T23:00:00Z,30.0600,-84.2910,23.96,1111122 
COMPS,ioos:station:USF.COMPS:SHP:1,2014-06-01T23:06:00Z,30.0600,-84.2910,23.91,1111122 
COMPS,ioos:station:USF.COMPS:SHP:1,2014-06-01T23:12:00Z,30.0600,-84.2910,23.92,1111122 
COMPS,ioos:station:USF.COMPS:SHP:1,2014-06-01T23:18:00Z,30.0600,-84.2910,24.03,1111122 
COMPS,ioos:station:USF.COMPS:SHP:1,2014-06-01T23:24:00Z,30.0600,-84.2910,24.2,1111122 
COMPS,ioos:station:USF.COMPS:SHP:1,2014-06-01T23:30:00Z,30.0600,-84.2910,24.1,1111122 
COMPS,ioos:station:USF.COMPS:SHP:1,2014-06-01T23:36:00Z,30.0600,-84.2910,24.03,1111122 
COMPS,ioos:station:USF.COMPS:SHP:1,2014-06-01T23:42:00Z,30.0600,-84.2910,23.87,1111122 
COMPS,ioos:station:USF.COMPS:SHP:1,2014-06-01T23:48:00Z,30.0600,-84.2910,23.9,1111122 
COMPS,ioos:station:USF.COMPS:SHP:1,2014-06-01T23:54:00Z,30.0600,-84.2910,23.8,1111122 
COMPS,ioos:station:USF.COMPS:SHP:1,2014-06-02T00:00:00Z,30.0600,-84.2910,23.73,1111122 
COMPS,ioos:station:USF.COMPS:SHP:1,2014-06-02T00:06:00Z,30.0600,-84.2910,23.54,1111122 
COMPS,ioos:station:USF.COMPS:SHP:1,2014-06-02T00:12:00Z,30.0600,-84.2910,23.52,1111122 
COMPS,ioos:station:USF.COMPS:SHP:1,2014-06-02T00:18:00Z,30.0600,-84.2910,23.38,1111122 
COMPS,ioos:station:USF.COMPS:SHP:1,2014-06-02T00:24:00Z,30.0600,-84.2910,23.34,1111122 
COMPS,ioos:station:USF.COMPS:SHP:1,2014-06-02T00:30:00Z,30.0600,-84.2910,23.26,1111122 
COMPS,ioos:station:USF.COMPS:SHP:1,2014-06-02T00:36:00Z,30.0600,-84.2910,23.5,1111122 
COMPS,ioos:station:USF.COMPS:SHP:1,2014-06-02T00:42:00Z,30.0600,-84.2910,23.6,1111122 
COMPS,ioos:station:USF.COMPS:SHP:1,2014-06-02T00:48:00Z,30.0600,-84.2910,23.37,1111122 
COMPS,ioos:station:USF.COMPS:SHP:1,2014-06-02T00:54:00Z,30.0600,-84.2910,23.11,1111122 
COMPS,ioos:station:USF.COMPS:SHP:1,2014-06-02T01:00:00Z,30.0600,-84.2910,23.12,1111122 
COMPS,ioos:station:USF.COMPS:SHP:1,2014-06-02T01:06:00Z,30.0600,-84.2910,23.07,1111122 
COMPS,ioos:station:USF.COMPS:SHP:1,2014-06-02T01:12:00Z,30.0600,-84.2910,22.88,1111122 
COMPS,ioos:station:USF.COMPS:SHP:1,2014-06-02T01:18:00Z,30.0600,-84.2910,22.87,1111122 
COMPS,ioos:station:USF.COMPS:SHP:1,2014-06-02T01:24:00Z,30.0600,-84.2910,22.85,1111122 
COMPS,ioos:station:USF.COMPS:SHP:1,2014-06-02T01:30:00Z,30.0600,-84.2910,22.95,1111122 
COMPS,ioos:station:USF.COMPS:SHP:1,2014-06-02T01:36:00Z,30.0600,-84.2910,22.78,1111122 
COMPS,ioos:station:USF.COMPS:SHP:1,2014-06-02T01:42:00Z,30.0600,-84.2910,22.73,1111122 
COMPS,ioos:station:USF.COMPS:SHP:1,2014-06-02T01:48:00Z,30.0600,-84.2910,22.76,1111122 
COMPS,ioos:station:USF.COMPS:SHP:1,2014-06-02T01:54:00Z,30.0600,-84.2910,22.85,1111122 
COMPS,ioos:station:USF.COMPS:SHP:1,2014-06-02T02:00:00Z,30.0600,-84.2910,22.73,1111122 
COMPS,ioos:station:USF.COMPS:SHP:1,2014-06-02T02:06:00Z,30.0600,-84.2910,22.73,1111122 
COMPS,ioos:station:USF.COMPS:SHP:1,2014-06-02T02:12:00Z,30.0600,-84.2910,22.73,1111122 
COMPS,ioos:station:USF.COMPS:SHP:1,2014-06-02T02:18:00Z,30.0600,-84.2910,22.9,1111122 
COMPS,ioos:station:USF.COMPS:SHP:1,2014-06-02T02:24:00Z,30.0600,-84.2910,22.81,1111122 
COMPS,ioos:station:USF.COMPS:SHP:1,2014-06-02T02:30:00Z,30.0600,-84.2910,22.78,1111122 
COMPS,ioos:station:USF.COMPS:SHP:1,2014-06-02T02:36:00Z,30.0600,-84.2910,22.8,1111122 
COMPS,ioos:station:USF.COMPS:SHP:1,2014-06-02T02:42:00Z,30.0600,-84.2910,22.85,1111122 
COMPS,ioos:station:USF.COMPS:SHP:1,2014-06-02T02:48:00Z,30.0600,-84.2910,22.76,1111122 
COMPS,ioos:station:USF.COMPS:SHP:1,2014-06-02T02:54:00Z,30.0600,-84.2910,22.73,1111122 
COMPS,ioos:station:USF.COMPS:SHP:1,2014-06-02T03:00:00Z,30.0600,-84.2910,22.62,1111122 
COMPS,ioos:station:USF.COMPS:SHP:1,2014-06-02T03:06:00Z,30.0600,-84.2910,22.62,1111122 